Flag for U.S.A. Weather past 2 weeks in Farmington, New Mexico, U.S.A.

Now
64 °F

Passing clouds.


Feels Like: 64 °F
Forecast: 62 / 88 °F
Wind: 9 mph from East

Location: Four Corners Regional Airport

Current Time: Aug 30, 2015 at 6:00:05 AM

Latest Report: Aug 30, 2015 at 4:53 AM


Visibility: 10 mi

Pressure: 29.99 "Hg (24.80 "Hg at 1617m altitude)

Humidity: 52%

Dew point: 46 °F

Location of FarmingtonLocation

Historic Weather in Farmington — Graph

°F

Farmington temperature yesterday

Maximum temperature yesterday: 90 °F (at 2:53 PM)
Minimum temperature yesterday: 61 °F (at 4:53 AM)
Average temperature yesterday: 76 °F

Past Weeks' High & Low Weather Summary

 TemperatureHumidityPressure
High97 °F (Aug 15, 3:53 PM)93% (Aug 26, 10:02 PM)30.37 "Hg (Aug 26, 10:02 PM)
Low54 °F (Aug 20, 5:53 AM)6% (Aug 18, 4:53 PM)29.69 "Hg (Aug 18, 4:53 PM)
Average76 °F36%29.96 "Hg
* Reported Aug 15 3:53 AM — Aug 30 3:53 AM, Farmington, Weather by CustomWeather, © 2015

Note: Actual official high and low records may vary slightly from our data, if they occured in-between our weather recording intervals... More about our weather records

Advertising

Farmington weather history for previous 24 hours

 ConditionsComfort  
Time TempWeatherWind HumidityBarometerVisibility
3:53 AM
Sun, Aug 30
65 °FClear.7 mph51%29.98 "Hg10 mi
2:53 AM69 °FClear.9 mph44%29.96 "Hg10 mi
1:53 AM73 °FClear.8 mph36%29.95 "Hg10 mi
12:53 AM72 °FClear.9 mph37%29.95 "Hg10 mi
11:53 PM
Sat, Aug 29
76 °FClear.8 mph32%29.95 "Hg10 mi
10:53 PM78 °FPassing clouds.14 mph30%29.95 "Hg10 mi
9:53 PM72 °FClear.6 mph34%29.97 "Hg10 mi
8:53 PM80 °FClear.5 mph24%29.95 "Hg10 mi
7:53 PM82 °FSunny.5 mph22%29.94 "Hg10 mi
6:53 PM88 °FSunny.5 mph16%29.93 "Hg10 mi
5:53 PM89 °FSunny.3 mph15%29.94 "Hg10 mi
4:53 PM90 °FSunny.7 mph14%29.95 "Hg10 mi
3:53 PM90 °FSunny.5 mph17%29.97 "Hg10 mi
2:53 PM90 °FSunny.8 mph19%30.01 "Hg10 mi
1:53 PM88 °FSunny.13 mph22%30.03 "Hg10 mi
12:53 PM85 °FSunny.N/A28%30.08 "Hg10 mi
11:53 AM82 °FSunny.7 mph32%30.10 "Hg10 mi
10:53 AM79 °FSunny.9 mph35%30.12 "Hg10 mi
9:53 AM76 °FSunny.10 mph39%30.11 "Hg10 mi
8:53 AM70 °FSunny.9 mph49%30.11 "Hg10 mi
7:53 AM66 °FSunny.8 mph52%30.11 "Hg10 mi
6:53 AM62 °FClear.8 mph60%30.08 "Hg10 mi
Weather by CustomWeather, © 2015

See weather overviewHow to use our weather pages